Погода в Анне

Погода в Анне : погода сейчас, прогноз погоды и архив. Всё, что Вы хотите узнать о погоде в Анне!

Хотите узнать прогноз погоды в Анне? Тогда Вам сюда: Погода в Анне

Поиск расширенной информации на нашем сайте:

Другие новости

Новости СМИ2

Главная страница сайта

Новости сайта

03.07.2017

Напоминаем, что на нашем специализированном сайте Метеоцентр.Азия вы можете получить высокодетализированные автоматические прогнозы погоды по пунктам России, СНГ и мира в авиационном формате (включающие направление и скорость ветра, видимость, явления погоды, количество и форму облачности, нижнюю и верхнюю границу облачности).


Погода в Анне - сегодня

Время (UTC), дата Ветер
(°,м/с) 
Видим.   Явления Облачность Т
(°С)
Тd
(°С)
f(%) Тe
(°С)
Pmin
(гПа)
dP
(гПа)
Po
(мм)
O2
(г/м3)
Тmin Tmax R s Состояние
почвы
09 20.01.18 180 (Ю) 10 км  {снег}  10/0 средняя 
[As op]
-6.2 -8.1 86 -9  1015.5  0.5  747  309           
12 20.01.18 190 (Ю) 10 км  {снег}  10/0 средняя 
[As op]
-3.3 -5 88 -5  1014.9  -0.3  747  305           
15 20.01.18 180 (Ю) 10 км    10/0 средняя 
[As trans]
-2.2 -4.1 87 -5  1015.9  747  304    -2.2  0.4     
18 20.01.18 150 (ЮВ) 4000 м  слаб. снег  10/0 средняя 
[As op]
-2.4 -3.3 94 -4  1015.5  -0.4  747  304           
21 20.01.18 150 (ЮВ) 4000 м  слаб. снег  10/10 300 м 
[Frnb|Ns]
-2.9 -3.9 93 -5  1014.5  -1  746  304           
00 21.01.18 120 (ЮВ) 10 км  слаб. снег  10/10 300 м 
[Frnb|Ns]
-3.2 -4.6 90 -4  1012.6  -1.9  745  304           
03 21.01.18 130 (ЮВ) 4000 м  слаб. снег  10/10 300 м 
[Frnb|Ns]
-4 -5.2 91 -6  1010.7  -2  743  305  -4    11  равномерный
сухой снег
100% 
06 21.01.18 120 (ЮВ) 2000 м  снег  10/10 300 м 
[Frnb|Ns]
-1.4 -1.9 96 -2  1009  -1.4  742  301           
09 21.01.18 140 (ЮВ) 2000 м  снег  10/10 300 м 
[Frnb|Ns]
-0.4 -0.7 98 -3  1007.2  -1.8  741  299           
12 21.01.18 140 (ЮВ) 5{10}  2000 м  снег  10/10 300 м 
[Frnb|Ns]
-1.3 -1.8 96 -5  1004.8  -2.3  739  299           
15 21.01.18 170 (Ю) 4000 м  слаб. снег  10/10 300 м 
[Frnb|Ns]
-0.6 -1 97 -4  1004.4  -0.4  739  298    +0  17     
18 21.01.18 270 (З) 6{13}  10 км  {снег}  8/8 600 м 
[Sc]
-4.1 -5.3 91 -8  1009.3  4.5  742  304           
21 21.01.18 260 (З) 4{10}  10 км    6/6 600 м 
[Sc]
-3 -4.7 88 -6  1013.5  4.3  746  304           
00 22.01.18 250 (З) 10 км    6/6 600 м 
[Sc]
-5.3 -7.4 85 -8  1015.8  2.1  747  308           
03 22.01.18 260 (З) 10 км    ясно 
-9.7 -11.4 87 -13  1017.6  1.3  748  314  -9.7    0.7  24  равномерный
сухой снег
100% 
06 22.01.18 250 (З) 10 км    10/0 средняя 
[As trans]
-6.6 -7.8 91 -6  1018.8  1.5  749  310  -10.2         
09 22.01.18 260 (З) 10 км    10/0 средняя 
[As trans]
-5.7 -7.5 87 -5  1020  1.2  750  309           
12 22.01.18 020 (С) 10 км    10/0 средняя 
[As trans]
-4.1 -6.4 84 -4  1020  0.1  750  308           
15 22.01.18 070 (В) 10 км    10/0 средняя 
[As trans]
-6.3 -7.5 91 -6  1020.3  0.2  750  310    -4.1       
18 22.01.18 050 (СВ) 10 км    10/10 300 м 
[St]
-6.1 -6.9 94 -6  1020.7  0.4  751  310           
21 22.01.18 050 (СВ) 10 км    10/10 600 м 
[St]
-5.5 -6.6 92 -7  1020.1  -0.6  750  309           
00 23.01.18 050 (СВ) 10 км    10/4 300 м средняя 
[Frnb|As op]
-6 -7.1 92 -7  1019.9  -0.2  750  310           
03 23.01.18 040 (СВ) 4000 м  слаб. снег  10/8 300 м средняя 
[Frnb|As op]
-6.2 -7 94 -10  1019.6  -0.3  750  310  -6.3    0.9  24  равномерный
сухой снег
100% 
06 23.01.18 050 (СВ) 10 км  {снег}  10/0 средняя 
[As op]
-6.2 -7.7 89 -10  1019.3  -0.3  750  310  -6.6         
09 23.01.18 050 (СВ) 10 км    10/0 средняя 
[As trans]
-5.1 -8 80 -8  1018.8  -0.4  749  308           
Время (UTC), дата Ветер
(°,м/с) 
Видим.   Явления Облачность Т
(°С)
Тd
(°С)
f(%) Тe
(°С)
Pmin
(гПа)
dP
(гПа)
Po
(мм)
O2
(г/м3)
Тmin Tmax R s Состояние
почвы

Для получения пояснительной информации подведите курсор к названию столбца.

ПОГОДА в Анне - архив

Всё, что Вы хотите узнать о погоде в Анне - удобно и подробно!

Выберите нужную дату (начиная с 1 января 2015* года) и нажмите кнопку "Найти".
Будут отображены архивные сводки погоды по пункту Анна, начиная с указанной даты.


Отображать данные в формате CSV (для использования в таблицах Excel)


Внимание! Наш архив погоды предназначен исключительно для личного некоммерческого использования в познавательных целях. Если Вам необходимы официальные справки о состоянии погоды (для производственных, юридических, коммерческих и т.п. целей), обращайтесь в органы Росгидромета.

*Примечание: данная дата относится к архиву по метеостанциям СССР (Россия, СНГ, Балтия).
Архив по метеостанциям Зарубежной Европы и Азии (кроме Китая) хранится 10 дней, по другим регионам земного шара (Китай, Африка, Америка, Австралия, Океания) - 1 день.

Анна - район местоположения метеостанции


Название, широта, долгота, высота метеостанции:
Анна 51.5°ш. 40.4°д. 154 м над ур. моря [Российская Федерация]

Дополнительная информация

В oтличие oт бoльшинства пoгoдных сайтoв мы публикуем пoдрoбную метеoинфoрмацию в детальнoм прoфессиoнальнoм фoрмате.

Характеристики температуры и влажнoсти вoздуха измеряются на высoте 2 м в тени вдали oт зданий и деревьев.
Скoрoсть ветра измеряется на высoте 10 м (на урoвне рoста челoвека скoрoсть ветра ниже в 1.5-2 раза). Если метеoстанция нахoдится в гoрoде или в лесу, тo скoрoсть ветра занижена на 2-4 м/с пo сравнению с oткрытым местoм. Скoрoсть ветра над акватoриями крупных рек и oзёр, а также на вершинах хoлмoв на 2-5 м/с выше, чем в oбычных услoвиях.
Атмoсфернoе давление в разных тoчках местнoсти мoжет значительнo oтличаться oт давления на метеoстанции, в зависимoсти oт услoвий рельефа (при пoдъёме на 10 м давление пoнижается примернo на 1 мм рт.ст.).